Weather History for Goshen, IN

Change the Weather History Date:

Sunday, October 23, 2011

  Actual Average Record
Temperature  
Mean Temperature 55 °F -  
Max Temperature 66 °F 60 °F 82 °F (1963)
Min Temperature 44 °F 39 °F 22 °F (1982)
Degree Days  
Heating Degree Days 10    
Growing Degree Days 5 (Base 50)    
Moisture  
Dew Point 40 °F    
Average Humidity 61    
Maximum Humidity 74    
Minimum Humidity 40    
Precipitation  
Precipitation 0.00 in - - ()
Sea Level Pressure  
Sea Level Pressure 29.98 in    
Wind  
Wind Speed 6 mph (SSW)    
Max Wind Speed 13 mph    
Max Gust Speed -    
Visibility 10 miles    
Events      
Averages and records for this station are not official NWS values.
T = Trace of Precipitation, MM = Missing Value Source: NWS Daily Summary

Daily Weather History Graph

Daily Weather History Graph

Search for Another Location

Airport:

Trip Planner

Search our weather history database for the weather conditions in past years. The results will help you decide how hot, cold, wet, or windy it might be!

Date:

Astronomy

Oct. 23, 2011 Rise Set
Actual Time 8:03 AM EDT 6:50 PM EDT
Civil Twilight 7:35 AM EDT 7:18 PM EDT
Nautical Twilight 7:03 AM EDT 7:50 PM EDT
Astronomical Twilight 6:31 AM EDT 8:23 PM EDT
Moon 4:07 AM EDT (10/23) 4:43 PM EDT (10/23)
Length of Visible Light 11h 42m
Length of Day
10h 46m
Waning Crescent, 14% of the Moon is Illuminated
Oct 23
Waning Crescent
Oct 26
New
Nov 2
First Quarter
Nov 10
Full
Nov 18
Last Quarter

Hourly Weather History & Observations

Time (EDT) Temp. Windchill Dew Point Humidity Pressure Visibility Wind Dir Wind Speed Gust Speed Precip Events Conditions
12:53 AM 44.1 °F 42.5 °F 36.0 °F 73% 30.03 in 10.0 mi SSE 3.5 mph - N/A   Clear
1:53 AM 45.0 °F 41.8 °F 36.0 °F 71% 30.01 in 10.0 mi SSE 5.8 mph - N/A   Clear
2:53 AM 44.1 °F 40.8 °F 36.0 °F 73% 30.01 in 10.0 mi SSE 5.8 mph - N/A   Clear
3:53 AM 46.0 °F 42.5 °F 37.0 °F 71% 30.01 in 10.0 mi South 6.9 mph - N/A   Partly Cloudy
4:53 AM 48.0 °F - 37.9 °F 68% 30.01 in 10.0 mi SSW 8.1 mph - N/A   Mostly Cloudy
5:53 AM 46.0 °F 43.1 °F 37.9 °F 73% 30.00 in 10.0 mi SSW 5.8 mph - N/A   Scattered Clouds
6:53 AM 46.0 °F 42.5 °F 37.0 °F 71% 30.01 in 10.0 mi South 6.9 mph - N/A   Clear
7:53 AM 45.0 °F 42.6 °F 37.0 °F 74% 30.01 in 10.0 mi South 4.6 mph - N/A   Clear
8:53 AM 46.0 °F 43.9 °F 37.9 °F 73% 30.02 in 10.0 mi South 4.6 mph - N/A   Clear
10:53 AM 53.1 °F - 42.1 °F 66% 30.02 in 10.0 mi SW 8.1 mph - N/A   Clear
11:53 AM 57.0 °F - 44.1 °F 62% 30.01 in 10.0 mi SW 4.6 mph - N/A   Clear
12:53 PM 61.0 °F - 45.0 °F 56% 30.00 in 10.0 mi West 5.8 mph - N/A   Clear
1:53 PM 63.0 °F - 45.0 °F 52% 29.98 in 10.0 mi WSW 6.9 mph - N/A   Clear
2:53 PM 64.9 °F - 41.0 °F 42% 29.96 in 10.0 mi SW 9.2 mph - N/A   Clear
3:53 PM 66.0 °F - 41.0 °F 40% 29.94 in 10.0 mi SW 10.4 mph - N/A   Clear
4:53 PM 64.0 °F - 39.9 °F 41% 29.94 in 10.0 mi WSW 10.4 mph - N/A   Clear
5:53 PM 63.0 °F - 39.0 °F 41% 29.94 in 10.0 mi SW 11.5 mph - N/A   Clear
6:53 PM 59.0 °F - 41.0 °F 51% 29.94 in 10.0 mi SSW 5.8 mph - N/A   Clear
7:53 PM 57.0 °F - 39.9 °F 53% 29.95 in 10.0 mi South 4.6 mph - N/A   Scattered Clouds
8:53 PM 57.0 °F - 41.0 °F 55% 29.94 in 10.0 mi South 8.1 mph - N/A   Partly Cloudy
9:53 PM 57.0 °F - 42.1 °F 57% 29.94 in 10.0 mi SSW 9.2 mph - N/A   Mostly Cloudy
10:53 PM 55.9 °F - 44.1 °F 64% 29.93 in 10.0 mi South 10.4 mph - N/A   Partly Cloudy
11:53 PM 57.0 °F - 46.0 °F 67% 29.91 in 10.0 mi South 12.7 mph - N/A   Scattered Clouds